Regional Weather Roundup
Issued by NWS

Home | Current Version | Previous Version | Text Only | Print | Product List | Glossary Off
Versions: 1 2 3 4 5 6 7 8 9 10 11 12 13 14 15 16 17 18 19 20 21 22 23 24 25 26 27 28 29 30 31 32 33 34 35 36 37 38 39 40 41 42 43 44 45 46 47 48 49 50

404
ASUS45 KBOU 211607
RWRCO

WEATHER ROUNDUP FOR COLORADO
NATIONAL WEATHER SERVICE DENVER/BOULDER CO
900 AM MST SAT JAN 21 2017

NOTE: "FAIR" INDICATES FEW OR NO CLOUDS BELOW 12000 FEET WITH NO
SIGNIFICANT WEATHER AND/OR OBSTRUCTIONS TO VISIBILITY.

COZ001>005-013-030-031-211700-
...NORTHWEST COLORADO...

CITY           SKY/WX    TMP DP  RH WIND       PRES   REMARKS
CRAIG          CLOUDY    19  14  81 SW5       29.36R WCI  12
HAYDEN         PTSUNNY   19  12  73 E12       29.35R WCI   7
MEEKER         CLOUDY    21  16  81 CALM      29.34R
MOUNT WERNER   NOT AVBL
STEAMBOAT SPGS CLOUDY    16  14  90 CALM      29.36R
WALDEN           N/A      7   1  78 CALM      29.38S
$$

COZ006>008-011-211700-
...WEST CENTRAL VALLEYS...

CITY           SKY/WX    TMP DP  RH WIND       PRES   REMARKS
GRAND JUNCTION LGT SNOW  31  31 100 NE7       29.36R FOG     WCI  24
MONTROSE       CLOUDY    30  26  85 W3        29.38R
EAGLE          CLOUDY    18  12  79 E3        29.44R
RIFLE          CLOUDY    29  23  78 E7        29.37R WCI  22
DELTA          LGT SNOW  33  32  94 E5        29.38R WCI  29
NUCLA          LGT SNOW  32  32 100 CALM      29.38R VSB 1
$$

COZ017>023-064>068-211700-
...SOUTHWEST COLORADO...

CITY           SKY/WX    TMP DP  RH WIND       PRES   REMARKS
DURANGO        HVY SNOW  29  27  92 CALM      29.35R VSB 1/4
CORTEZ         HVY SNOW  32  31  96 SW17      29.36R VSB 1/4 WCI  21
PAGOSA SPRINGS SNOW      28  28 100 CALM      29.36S VSB 1/2
TELLURIDE      NOT AVBL
WOLF CREEK PAS CLOUDY    14  14 100 S10       29.39R WCI   1
$$

COZ009-010-012-014-032>034-037-058>063-211700-
...CENTRAL COLORADO...

CITY           SKY/WX    TMP DP  RH WIND       PRES   REMARKS
ASPEN          FAIR      18  13  80 CALM      29.34R
BUENA VISTA    CLOUDY    14   6  69 W8        29.39S WCI   3
COPPER MTN     PTSUNNY   19   9  63 CALM      29.34S
BERTHOUD PASS  NOT AVBL
COTTONWOOD PAS FAIR      21  14  73 CALM      29.36S
GUNNISON       FAIR       6   2  83 CALM      29.41R
KREMMLING      LGT SNOW N/A N/A N/A CALM      29.44R
LEADVILLE      PTSUNNY    5   1  83 CALM      29.35R
MONARCH PASS   PTSUNNY   14  12  92 SW10G21   29.45R WCI   1
SALIDA         CLOUDY    21  12  68 NW6       29.47R WCI  13
SUNLIGHT       SNOW      18  14  86 MISG      29.37R VSB 1/4
WILKERSON PASS CLOUDY    14  12  92 SW7       29.38R WCI   4
$$

COZ069>075-211700-
...SAN LUIS VALLEY/SANGRE DE CRISTO MOUNTAINS...

CITY           SKY/WX    TMP DP  RH WIND       PRES   REMARKS
ALAMOSA        CLOUDY    22  17  81 NE3       29.39R
LA VETA PASS   LGT SNOW  23  21  93 N8G16     29.37R WCI  14
SAGUACHE       CLOUDY    21  18  86 NW10      29.40S WCI  10
$$

COZ035-036-038>040-211700-
...NORTHERN COLORADO FRONT RANGE...

CITY           SKY/WX    TMP DP  RH WIND       PRES   REMARKS
DENVER INTL AP PTSUNNY   29  22  75 W6        29.37R WCI  23
DMNS CITY PARK   N/A     29  24  81 SE1       29.38S
AURORA         PTSUNNY   27  20  73 S5        29.38R WCI  22
FRONT RANGE AP MOSUNNY   32  21  64 SW6       29.37R WCI  26
ERIE MUNI ARPT FAIR      26  24  93 S3        29.39R
BOULDER MUN AP FAIR      28  25  86 CALM      29.38R
CENTENNIAL     FAIR      28  18  66 W5        29.37R WCI  23
BROOMFIELD     PTSUNNY   27  25  93 CALM      29.38R
FORT COLLINS   FAIR      27  19  74 NE8       29.39R WCI  18
LONGMONT       FAIR      28  23  82 CALM      29.41R
$$

COZ041-046-047-076>085-087-088-211700-
...PIKES PEAK/PALMER DIVIDE AND SOUTHERN FOOTHILLS...

CITY           SKY/WX    TMP DP  RH WIND       PRES   REMARKS
COLO. SPRINGS  PTSUNNY   28  22  78 CALM      29.39R
A. F. ACADEMY  FAIR      27  22  82 CALM      29.37R
SCHRIEVER AFB  NOT AVBL
ELLICOTT       FAIR     N/A N/A N/A SE3       29.37R
FALCON         FAIR      29  25  88 CALM      29.38R
FORT CARSON    NOT AVBL
LIMON          PTSUNNY   25  25 100 CALM      29.39R FOG
MONUMENT HILL  FAIR      28  21  74 S5        29.37R WCI  23
TRINIDAD       FAIR      24  17  74 W7        29.35F WCI  16
$$

COZ042>045-048>051-090-091-211700-
...NORTHEAST COLORADO...

CITY           SKY/WX    TMP DP  RH WIND       PRES   REMARKS
GREELEY ARPT   FOG       24  22  91 CALM      29.41R VSB<1/4
AKRON          FAIR      34  25  69 SE12      29.40R WCI  25
BURLINGTON     FAIR      34  30  85 SE5       29.40F WCI  30
WRAY           NOT AVBL
STERLING       FAIR      28  27  93 CALM      29.41S
HOLYOKE        FAIR      32  27  80 W3        29.44R
FORT MORGAN    FAIR      30  27  88 CALM      29.41R
$$

COZ086-089-092>099-211700-
...SOUTHEAST COLORADO...

CITY           SKY/WX    TMP DP  RH WIND       PRES   REMARKS
PUEBLO         FOG       31  28  89 N5        29.38F VSB 1/2 WCI  26
LA JUNTA       FOG       27  24  89 NW6       29.41R VSB 1/4 WCI  20
LAMAR          FAIR      26  23  88 SW5       29.39S WCI  20
SPRINGFIELD      N/A     34  26  72 SW3       29.37S
$$




USA.gov is the U.S. government's official web portal to all federal, state and local government web resources and services.